STARLINK-1421 (45709 NORAD) Tracking and Keplerian Element Data

This shows tracking and keplerian element data for the satellite.

Feedback or suggestion? Click here.




ElementValue
Catalog45709
NameSTARLINK-1421
Epoch Orbit552
Epoch Day185.50001157
Epoch Year2020
RAAN24.9309
Inclination52.9995
Eccentricity0.0001191
Argument of Perigee94.1991
Mean Anonmoly351.7695
Mean Motion15.62733538
Decay Rate0.00047141
L11 45709U 20035BE 20185.50001157 .00047141 00000-0 51806-3 0 9990
L22 45709 52.9995 24.9309 0001191 94.1991 351.7695 15.62733538 5529

Live tracking and technical data element details for STARLINK-1421 (NORAD 45709). STARLINK-1421 can be tracked NOW for your location showing map with azimuth and elevation plus other details from your city location.

Track the satellite on the map from your city or location and see movement details for azimuth, elevation, latitude, longitude, range, height, and movement on the map or in text.







IsCatalogInMostPopularTable: catalog: 45709, numindb: 5
Update: records affected: 1



GetName: 45709 STARLINK-1421

Hit Count: updated at: Sat, 04 Jul 2020 01:11:56 GMT